Tiempo cada hora Murmansk

Hoy, 22 Octubre, Jueves

Tiempo Temperatura Precipitaciones Viento Presión Humedad
00:00 -2°C° 0 mm 1 mps 745 mmHg 90%
01:00 -2°C° 0 mm 1 mps 745 mmHg 90%
02:00 -3°C° 0 mm 1 mps 745 mmHg 92%
03:00 -3°C° 0 mm 1 mps 745 mmHg 92%
04:00 -3°C° 0 mm 1 mps 744 mmHg 92%
05:00 -3°C° 0 mm 1 mps 744 mmHg 92%
06:00 -3°C° 0 mm 1 mps 743 mmHg 92%
07:00 -3°C° 0 mm 1 mps 743 mmHg 91%
08:00 -3°C° 0 mm 1 mps 743 mmHg 90%
09:00 -2°C° 0 mm 1 mps 743 mmHg 88%
10:00 -2°C° 0 mm 1 mps 742 mmHg 86%
11:00 -3°C° 0 mm 2 mps 742 mmHg 83%
12:00 -3°C° 0 mm 2 mps 741 mmHg 83%
13:00 -4°C° 0 mm 3 mps 741 mmHg 82%
14:00 -3°C° 0 mm 4 mps 741 mmHg 81%
15:00 -3°C° 0 mm 4 mps 740 mmHg 83%
16:00 -3°C° 0 mm 4 mps 739 mmHg 84%
17:00 -5°C° 0 mm 5 mps 739 mmHg 86%
18:00 -4°C° 0.2 mm 5 mps 738 mmHg 86%
19:00 -4°C° 0.2 mm 6 mps 738 mmHg 87%
20:00 -4°C° 0.2 mm 7 mps 737 mmHg 88%
21:00 -4°C° 0.3 mm 6 mps 737 mmHg 88%
22:00 -4°C° 0.3 mm 6 mps 736 mmHg 88%
23:00 -3°C° 0.3 mm 6 mps 735 mmHg 88%

Mañana, 23 Octubre, Viernes

Tiempo Temperatura Precipitaciones Viento Presión Humedad
00:00 -3°C° 0.3 mm 7 mps 735 mmHg 88%
01:00 -3°C° 0.3 mm 7 mps 734 mmHg 87%
02:00 -3°C° 0.3 mm 7 mps 734 mmHg 87%
03:00 -3°C° 0.2 mm 7 mps 733 mmHg 87%
04:00 -3°C° 0.2 mm 7 mps 733 mmHg 86%
05:00 -3°C° 0.2 mm 7 mps 732 mmHg 86%
06:00 -3°C° 0.3 mm 7 mps 731 mmHg 87%
07:00 -4°C° 0.3 mm 7 mps 731 mmHg 88%
08:00 -4°C° 0.3 mm 7 mps 730 mmHg 89%
09:00 -3°C° 0.4 mm 7 mps 730 mmHg 88%
10:00 -3°C° 0.4 mm 7 mps 730 mmHg 87%
11:00 -3°C° 0.4 mm 7 mps 730 mmHg 86%
12:00 -3°C° 0.2 mm 7 mps 729 mmHg 86%
13:00 -3°C° 0.2 mm 7 mps 729 mmHg 86%
14:00 -3°C° 0.2 mm 7 mps 729 mmHg 86%
15:00 -4°C° 0.1 mm 7 mps 729 mmHg 86%
16:00 -4°C° 0.1 mm 6 mps 728 mmHg 87%
17:00 -4°C° 0.1 mm 6 mps 728 mmHg 88%
18:00 -4°C° 0.2 mm 6 mps 728 mmHg 89%
19:00 -4°C° 0.2 mm 5 mps 728 mmHg 91%
20:00 -4°C° 0.2 mm 5 mps 728 mmHg 93%
21:00 -4°C° 0.4 mm 5 mps 728 mmHg 93%
22:00 -4°C° 0.4 mm 4 mps 728 mmHg 94%
23:00 -4°C° 0.4 mm 4 mps 728 mmHg 94%

Pasado mañana, 24 Octubre, Sábado

Tiempo Temperatura Precipitaciones Viento Presión Humedad
00:00 -4°C° 0.4 mm 4 mps 729 mmHg 95%
01:00 -4°C° 0.4 mm 3 mps 729 mmHg 95%
02:00 -4°C° 0.4 mm 3 mps 729 mmHg 96%
03:00 -4°C° 0.4 mm 3 mps 729 mmHg 96%
04:00 -4°C° 0.4 mm 3 mps 729 mmHg 96%
05:00 -3°C° 0.4 mm 2 mps 729 mmHg 96%
06:00 -3°C° 0.3 mm 2 mps 729 mmHg 96%
07:00 -3°C° 0.3 mm 2 mps 729 mmHg 96%
08:00 -3°C° 0.3 mm 2 mps 730 mmHg 96%
09:00 -3°C° 0.1 mm 2 mps 730 mmHg 95%
10:00 -3°C° 0.1 mm 2 mps 730 mmHg 94%
11:00 -2°C° 0.1 mm 2 mps 730 mmHg 93%
12:00 -2°C° 0.1 mm 2 mps 731 mmHg 94%
13:00 -2°C° 0.1 mm 2 mps 731 mmHg 95%
14:00 -2°C° 0.1 mm 2 mps 732 mmHg 95%
15:00 -2°C° 0.1 mm 2 mps 732 mmHg 96%
16:00 -2°C° 0.1 mm 2 mps 732 mmHg 96%
17:00 -2°C° 0.1 mm 2 mps 732 mmHg 97%
18:00 -2°C° 0 mm 2 mps 733 mmHg 97%
19:00 -2°C° 0 mm 2 mps 733 mmHg 97%
20:00 -3°C° 0 mm 2 mps 733 mmHg 97%
21:00 -2°C° 0.1 mm 2 mps 734 mmHg 97%
22:00 -2°C° 0.1 mm 2 mps 734 mmHg 97%
23:00 -2°C° 0.1 mm 2 mps 735 mmHg 97%

, 25 Octubre, Domingo

Tiempo Temperatura Precipitaciones Viento Presión Humedad
00:00 -2°C° 0 mm 2 mps 735 mmHg 97%
01:00 -2°C° 0 mm 2 mps 736 mmHg 97%
02:00 -2°C° 0 mm 2 mps 736 mmHg 96%
03:00 -2°C° 0 mm 2 mps 737 mmHg 96%
04:00 -2°C° 0 mm 2 mps 737 mmHg 95%
05:00 -2°C° 0 mm 2 mps 738 mmHg 95%
06:00 -2°C° 0 mm 2 mps 738 mmHg 95%
07:00 -2°C° 0 mm 2 mps 738 mmHg 96%
08:00 -2°C° 0 mm 2 mps 739 mmHg 96%
09:00 -2°C° 0 mm 2 mps 739 mmHg 96%
10:00 -2°C° 0 mm 2 mps 740 mmHg 95%
11:00 -2°C° 0 mm 2 mps 740 mmHg 95%
12:00 -2°C° 0 mm 2 mps 741 mmHg 95%
13:00 -1°C° 0 mm 1 mps 741 mmHg 95%
14:00 -1°C° 0 mm 1 mps 742 mmHg 95%
15:00 -2°C° 0 mm 1 mps 742 mmHg 95%
16:00 -2°C° 0 mm 1 mps 742 mmHg 94%
17:00 -3°C° 0 mm 1 mps 742 mmHg 94%
18:00 -3°C° 0 mm 1 mps 742 mmHg 94%
19:00 -3°C° 0 mm 1 mps 743 mmHg 94%
20:00 -3°C° 0 mm 1 mps 743 mmHg 94%
21:00 -5°C° 0 mm 2 mps 743 mmHg 94%
22:00 -5°C° 0 mm 2 mps 743 mmHg 93%
23:00 -4°C° 0 mm 2 mps 743 mmHg 93%

25 Octubre, Domingo

Tiempo Temperatura Precipitaciones Viento Presión Humedad
00:00 -2°C° 0 mm 2 mps 735 mmHg 97%
01:00 -2°C° 0 mm 2 mps 736 mmHg 97%
02:00 -2°C° 0 mm 2 mps 736 mmHg 96%
03:00 -2°C° 0 mm 2 mps 737 mmHg 96%
04:00 -2°C° 0 mm 2 mps 737 mmHg 95%
05:00 -2°C° 0 mm 2 mps 738 mmHg 95%
06:00 -2°C° 0 mm 2 mps 738 mmHg 95%
07:00 -2°C° 0 mm 2 mps 738 mmHg 96%
08:00 -2°C° 0 mm 2 mps 739 mmHg 96%
09:00 -2°C° 0 mm 2 mps 739 mmHg 96%
10:00 -2°C° 0 mm 2 mps 740 mmHg 95%
11:00 -2°C° 0 mm 2 mps 740 mmHg 95%
12:00 -2°C° 0 mm 2 mps 741 mmHg 95%
13:00 -1°C° 0 mm 1 mps 741 mmHg 95%
14:00 -1°C° 0 mm 1 mps 742 mmHg 95%
15:00 -2°C° 0 mm 1 mps 742 mmHg 95%
16:00 -2°C° 0 mm 1 mps 742 mmHg 94%
17:00 -3°C° 0 mm 1 mps 742 mmHg 94%
18:00 -3°C° 0 mm 1 mps 742 mmHg 94%
19:00 -3°C° 0 mm 1 mps 743 mmHg 94%
20:00 -3°C° 0 mm 1 mps 743 mmHg 94%
21:00 -5°C° 0 mm 2 mps 743 mmHg 94%
22:00 -5°C° 0 mm 2 mps 743 mmHg 93%
23:00 -4°C° 0 mm 2 mps 743 mmHg 93%

26 Octubre, Lunes

Tiempo Temperatura Precipitaciones Viento Presión Humedad
00:00 -4°C° 0 mm 2 mps 743 mmHg 92%
01:00 -4°C° 0 mm 2 mps 743 mmHg 91%
02:00 -4°C° 0 mm 2 mps 742 mmHg 90%
03:00 -5°C° 0 mm 3 mps 742 mmHg 90%
04:00 -4°C° 0 mm 3 mps 741 mmHg 90%
05:00 -4°C° 0 mm 4 mps 741 mmHg 89%
06:00 -4°C° 0.8 mm 4 mps 740 mmHg 90%
07:00 -4°C° 0.8 mm 5 mps 739 mmHg 91%
08:00 -4°C° 0.8 mm 6 mps 738 mmHg 92%
09:00 -3°C° 0.3 mm 6 mps 738 mmHg 91%
10:00 -2°C° 0.3 mm 7 mps 737 mmHg 90%
11:00 -2°C° 0.3 mm 7 mps 736 mmHg 89%
12:00 -1°C° 0 mm 7 mps 736 mmHg 91%
13:00 0°C° 0 mm 7 mps 736 mmHg 92%
14:00 +2°C° 0 mm 6 mps 735 mmHg 94%
15:00 +2°C° 0 mm 6 mps 736 mmHg 94%
16:00 +1°C° 0 mm 6 mps 736 mmHg 94%
17:00 +1°C° 0 mm 5 mps 737 mmHg 95%
18:00 0°C° 0 mm 4 mps 737 mmHg 95%
19:00 +1°C° 0 mm 3 mps 738 mmHg 95%
20:00 +1°C° 0 mm 2 mps 738 mmHg 95%
21:00 +1°C° 0 mm 2 mps 739 mmHg 95%
22:00 +1°C° 0 mm 2 mps 739 mmHg 96%
23:00 -1°C° 0 mm 2 mps 739 mmHg 96%

27 Octubre, Martes

Tiempo Temperatura Precipitaciones Viento Presión Humedad
00:00 +1°C° 0 mm 2 mps 739 mmHg 97%
01:00 +1°C° 0 mm 3 mps 739 mmHg 97%
02:00 +1°C° 0 mm 3 mps 739 mmHg 98%
03:00 +1°C° 0 mm 3 mps 739 mmHg 97%
04:00 +1°C° 0 mm 3 mps 739 mmHg 97%
05:00 +1°C° 0 mm 3 mps 739 mmHg 97%
06:00 +1°C° 0 mm 3 mps 739 mmHg 97%
07:00 +2°C° 0 mm 3 mps 739 mmHg 96%
08:00 +2°C° 0 mm 3 mps 739 mmHg 96%
09:00 +2°C° 0 mm 3 mps 739 mmHg 96%
10:00 +2°C° 0 mm 3 mps 739 mmHg 96%
11:00 +2°C° 0 mm 3 mps 739 mmHg 95%
12:00 +2°C° 0 mm 3 mps 739 mmHg 96%
13:00 +2°C° 0 mm 3 mps 739 mmHg 96%
14:00 +3°C° 0 mm 3 mps 738 mmHg 97%
15:00 +2°C° 0 mm 3 mps 738 mmHg 97%
16:00 +2°C° 0 mm 3 mps 738 mmHg 97%
17:00 +2°C° 0 mm 3 mps 738 mmHg 98%
18:00 +2°C° 0 mm 3 mps 737 mmHg 98%
19:00 +2°C° 0 mm 3 mps 737 mmHg 98%
20:00 +2°C° 0 mm 3 mps 737 mmHg 98%
21:00 +2°C° 0 mm 3 mps 737 mmHg 98%
22:00 +2°C° 0 mm 3 mps 737 mmHg 98%
23:00 +2°C° 0 mm 3 mps 737 mmHg 97%
Mostrar más

Necesitamos Su Consentimiento

Meteoprog y nuestros Proveedores de Servicios pueden almacenar y acceder a sus datos personales como cookies, identificadores de dispositivo u otras tecnologías similares de su dispositivo y procesar dichos datos para personalizar contenido y anuncios, además de ofrecer funciones de redes sociales y analizar el tráfico.

  • Almacenar y/o acceder a información en su dispositivo

    Se puede almacenar o acceder a cookies, identificadores de dispositivo u otra información de su dispositivo para los fines anteriormente indicados.

  • Anuncios y contenido personalizados, medición de anuncios y contenido, percepciones del público, y desarrollo de productos

    Los anuncios y el contenido pueden personalizarse en base a su perfil. Se pueden añadir más datos para personalizar mejor los anuncios y contenidos. Se puede medir el rendimiento de los anuncios y contenidos. Se puede obtener la percepción sobre el público que ha visto los anuncios y contenidos. Dichos datos pueden usarse para desarrollar o mejorar la experiencia del usuario, sistemas y software.

Al hacer clic en ‘Estoy De Acuerdo’ usted permitirá el uso de las cookies, identificadores de dispositivo, balizas web u otras tecnologías similares indicadas. Su configuración puede cambiarse desde el navegador de su dispositivo.

Para ciertos fines, los intereses legítimos pueden ser considerados por encima del consentimiento. Puede leer más sobre ello en nuestra Política de Privacidad y Cookies.